"Pseudo-MPEC" for C0MHM82

Created 2019 May 21 8:07:05 UT using Find_Orb

Click here for an explanation of pseudo-MPECs

 
 Astrometry: 
     C0MHM82  C2019 05 14.22123 14 40 37.35 -23 49 59.0    ~5E6M 18.6 GVNEOCPG96
     C0MHM82  C2019 05 14.22685 14 40 37.49 -23 49 47.2    ~5E6M 18.3 GVNEOCPG96
     C0MHM82  C2019 05 14.23248 14 40 37.64 -23 49 35.6    ~5E6M 18.4 GVNEOCPG96
     C0MHM82  C2019 05 14.28739214 40 38.74 -23 47 40.7    ~5E7b 18.7 GVNEOCPH01
     C0MHM82  C2019 05 14.29135414 40 38.83 -23 47 32.3    ~5E7b 18.9 GVNEOCPH01
     C0MHM82  C2019 05 14.29948714 40 39.02 -23 47 15.0    ~5E7b 19.0 GVNEOCPH01
     C0MHM82  C2019 05 14.30912214 40 39.26 -23 46 54.4    ~5E7b 18.9 GVNEOCPH01
     C0MHM82  C2019 05 14.35681 14 40 40.56 -23 45 10.9    ~5E97 19.4 GVNEOCPI52
     C0MHM82  C2019 05 14.35829 14 40 40.64 -23 45 07.9    ~5E97 19.4 GVNEOCPI52
     C0MHM82  C2019 05 14.35999 14 40 40.64 -23 45 04.2    ~5E97 19.2 GVNEOCPI52
     C0MHM82 KC2019 05 14fc2@!_(me1eZFm\L-r]4v8B._0d:JZ%6'P)t;:9u:`WAm*$'d!?aE23
     C0MHM82 KC2019 05 14cXq(rgRRmB-Nrjh*;=y!OtnYxOCSH*qUyxC+*jM7'tBf5_?j498GE23
     C0MHM82 KC2019 05 14kgEEi)o9oG6Astrometry+'Cx[$r#Da=cQ+VCSH0Rmy[cHt2o02jE23
     C0MHM82 KC2019 05 14mwh):`FU#d`/@)hmn5F)Rn$d=hPrYxI!'%pgKEj2.doJ-crB/!O$Z84
     C0MHM82 KC2019 05 14%muHxG'vq(WvRx$CFjQ1_UHM:2Oij.7eV537e*tvZLt]*r)NIn4%Z84
     C0MHM82 KC2019 05 14.94180 14 41 06.72 -23 24 11.1    ~5ENq 18.4 VqNEOCPI93
     C0MHM82 KC2019 05 14.95478 14 41 07.09 -23 23 41.1    ~5ENq 19.3 VqNEOCPI93
     C0MHM82 KC2019 05 14.96635 14 41 07.42 -23 23 16.4    ~5ENq 18.1 VqNEOCPI93
     C0MHM82 KC2019 05 1526,MH5plDaXTPEl;)@kclfFQ8*%axm@1*'8,by:$1oTV;J95;'[#I47
     C0MHM82 KC2019 05 152s-8[_+UJi\bvS%Om):]JW-cl#eN^h`redacted;XORm5^_M9#l'I47
     C0MHM82 KC2019 05 15,_dFV!p3cYZfybJg\=U)Rmclick,7tymxkthere^*8+`:UN#ibihI47
     C0MHM82  C2019 05 15.18558 14 41 18.46 -23 15 01.7    ~5F57 19.3 GVNEOCPI52
     C0MHM82  C2019 05 15.18958 14 41 18.53 -23 14 53.2    ~5F57 19.2 GVNEOCPI52
     C0MHM82  C2019 05 15.19157 14 41 18.60 -23 14 48.0    ~5F57 19.0 GVNEOCPI52
     C0MHM82 KC2019 05 15JmUL*L[3$NspIrc!c89HPx.DT6GwxjeH^tOBGdU%9)O!mq?_0gicL29
     C0MHM82 KC2019 05 15O4q@[n3A-p`.ZohMx=Cd:?I%`mBi'9/-NB@o`'?6SpX[nu$H:sA=L29
     C0MHM82 KC2019 05 15R[0tK73Z.tbPn1ku*ke8;forCsdsw23J.Pi;PnRc):]EkQW6';'lL29
     C0MHM82 KC2019 05 16SC6L-c$svN'+KA[sNyh6H3BYIIt+oN(_iHXbDaD%lI'B(EK=G8_bI47
     C0MHM82 KC2019 05 16.G#NOc)eaZdH$in'CvJLVIQspi2v+tvRR%'o.yZIZDL8g@@1pD7MI47
     C0MHM82 KC2019 05 16mhcW39c-io_nQTVPiZd3,#!wfQA#$hEXQED?-35l\f!lpDL[W282I47
     C0MHM82  C2019 05 16.29776 14 42 07.98 -22 31 52.1    ~5G7q 18.6 GVNEOCPI52
     C0MHM82  C2019 05 16.30212 14 42 08.06 -22 31 43.1    ~5G7q 18.5 GVNEOCPI52
     C0MHM82  C2019 05 16.30431 14 42 08.15 -22 31 38.8    ~5G7q 19.0 GVNEOCPI52
     C0MHM82 KC2019 05 1695xj0UHxZ)WMP3:eYP+4wVXI7j6)OUs(dueU/v56LH*l\[QpX-)[595
     C0MHM82 KC2019 05 16xsq'Oy^s[IHahXJdm`6pk\R4^A+stXkU.EUFs6oAR7y!Gcl=.NI4595
     C0MHM82 IC2019 05 16bKL^1EXij3Q6Bxc3G*?_^A:+^,l5KZwP,5a,G+P[6@Wh)D6hcOL_L01
     C0MHM82 KC2019 05 16i1CPgjelJB1R^qyCG4YhFHKj89.A?m0Pj:=Z%c_B,JtDAMgBbF0.L01
     C0MHM82 KC2019 05 16H6R`O`'oSlyD,qXfZ=.fg\db/Q+KRo3+f;5Lv*ZB)X)jo[bW!)m@L01
     C0MHM82 KC2019 05 16lqQ(IF;$,'?A.;%B8.TAcx6x`mSj`s6kgxng:rsukn]asYy\g@EfL01
     C0MHM82 KC2019 05 19VwL#Pp=J,YoM2c;L6h!'79hdrgF`-E=B,@s#]wcqlk)/`/E(0M?IL29
     C0MHM82 KC2019 05 19;*v]*6jP.LH(yK@vi7BZtR@)wHm$BqtLGW0]!:ycgGl@M2=p#9PwL29
     C0MHM82 KC2019 05 19kJZCrMGnxA@ER+(TE[=explanationf]/-0uJZx=0u/4UR`]SU5OL29
     C0MHM82 KC2019 05 20.96228314 46 49.73 -18 52 17.0    ~5L5b 18.7 GVNEOCPJ95
     C0MHM82 KC2019 05 20.97892914 46 50.73 -18 51 22.0    ~5L5b       VNEOCPJ95
     C0MHM82 KC2019 05 20.98922914 46 51.32 -18 50 48.9    ~5L5b       VNEOCPJ95

Station data:
(595) Farra d'Isonzo  (N45.915734 E13.525780)  Italy.  Observers L.
   Bittesini, F. Fabris, E. Pettarin, F. Piani. Measurer E. Pettarin. 0.30-m
   f/4.5 reflector + CCD.
(E23) Arcadia  (S33.621199 E151.071190)  Australia/NSW.
(G96) Mt. Lemmon Survey  (N32.442754 W110.788720)  US/Arizona.  Observers T.
   A. Pruyne, B. M. Africano, E. J. Christensen, G. A. Farneth, D. C. Fuls,
   A. R. Gibbs, A. D. Grauer, H. Groeller, J. A. Johnson, R. A. Kowalski, S.
   M. Larson, G. J. Leonard, R. L. Seaman, F. C. Shelly. 1.5-m reflector +
   10K CCD.
(H01) Magdalena Ridge Observatory, Socorro  (N33.984833 W107.189333)  US/New
   Mexico.  Observers W. H. Ryan, E. V. Ryan. Measurer W. H. Ryan. 2.4-m
   f/8.9 reflector + CCD.
(I47) Pierre Auger Observatory, Malargüe  (S35.495442 W69.449700)  Argentina.
(I52) Steward Observatory, Mt. Lemmon Station  (N32.442547 W110.788920)
   US/Arizona.  Observers T. A. Pruyne, B. M. Africano, E. J. Christensen, G.
   A. Farneth, D. C. Fuls, A. R. Gibbs, A. D. Grauer, H. Groeller, J. A.
   Johnson, R. A. Kowalski, S. M. Larson, G. J. Leonard, R. L. Seaman, F. C.
   Shelly. 1.0-m reflector + CCD.
(I93) St Pardon de Conques  (N44.558710 W0.203000)  France.  Observer F.
   Losse. 0.40-m f/3.7 reflector + CCD.
(J95) Great Shefford  (N51.474969 W1.447003)  UK.  Observer P. Birtwhistle.
   0.40-m f/6.0 Schmidt-Cassegrain + CCD.
(L01) Višnjan Observatory, Tičan  (N45.290900 E13.749300)  Croatia.
   Observers K. Korlević, E. Pettarin. Measurer E. Pettarin. 1.0-m f/2.9
   reflector + CCD.
(L29) Drebach-South Observatory, Windhoek  (S23.460102 E18.016900)  Namibia.
(Z84) Calar Alto-Schmidt  (N37.224049 W2.548210)  Spain.

Orbital elements:  C0MHM82
   Perihelion 2019 Jul 7.043657 +/- 0.00792 TT =  1:02:51 (JD 2458671.543657)
Epoch 2019 May 20.0 TT = JDT 2458623.5   Earth MOID: 0.0756   AutoNEOCP
M 344.69688214 +/- 0.09             (J2000 ecliptic)
n   0.31852525 +/- 0.00187          Peri.   48.13821 +/- 0.008
a   2.12344069 +/- 0.00832          Node   239.68979 +/- 0.0054
e   0.5181794 +/- 0.00188           Incl.    9.06733 +/- 0.024
P   3.09                   H 21.7   G  0.15   U  8.5  
q 1.02311726 +/- 4.89e-5    Q 3.22376412 +/- 0.0167
From 45 observations 2019 May 14-20; mean residual 0".40
Residuals in arcseconds: 
190514 G96  .07+  .17-    190514 I93  .42-  .53-    190516 I52  .40+  2.4+    
190514 G96  .14+  .03-    190514 I93  .39-  .93+    190516 I52  .35-  .81+    
190514 G96  .36+  .13-    190514 I93  .35-  .09+    190516 I52  .04-  .22-    
190514 H01  .10+  .04-    190515 I47  .52+  .02+    190516 595  .27-  .25-    
190514 H01  .05+  .07-    190515 I47  .49+  .20-    190516 595  .07+  .66-    
190514 H01  .01-  .11-    190515 I47  .28+  .62-    190516 L01  .34+  .39-    
190514 H01  .10+  .12-    190515 I52  .25+  .24-    190516 L01  .24+  .07-    
190514 I52  .24-  .23+    190515 I52  .39-  .52-    190516 L01  .01+  .25+    
190514 I52  .34+  .02+    190515 I52  .21-  .31+    190516 L01  .38+  .25-    
190514 I52  .26-  .03+    190515 L29  .19-  .63-    190519 L29  .44-  .11+    
190514 E23  .07+  .73+    190515 L29  .20+  .16-    190519 L29  .08+  .00     
190514 E23  .06-  .05+    190515 L29  .46-  .12-    190519 L29  .32-  .01+    
190514 E23  .32-  .15+    190516 I47  .11-  .27+    190520 J95  .18-  .17+    
190514 Z84  .04+  .01+    190516 I47  .08+  .10+    190520 J95  .22+  .36+    
190514 Z84  .00   .35-    190516 I47  .04+  .06+    190520 J95  .03+  .54-    

Ephemerides (geocentric):
Date (UTC) HH   RA              Dec         delta   r     elong  mag " sig PA
---- -- -- --  -------------   -----------  ------ ------ -----  --- ---- ---
2019 05 21 08  14 47 17.500   -18 30 51.09  .15835 1.1657 165.1 18.8 .158  19
2019 05 21 09  14 47 20.666   -18 28 30.55  .15813 1.1655 165.0 18.8 .160  20
2019 05 21 10  14 47 23.843   -18 26 09.61  .15790 1.1653 165.0 18.8 .162  22
2019 05 21 11  14 47 27.032   -18 23 48.29  .15768 1.1651 165.0 18.8 .165  23
2019 05 21 12  14 47 30.232   -18 21 26.57  .15746 1.1648 164.9 18.8 .167  24
2019 05 21 13  14 47 33.443   -18 19 04.46  .15724 1.1646 164.9 18.8 .169  25
2019 05 21 14  14 47 36.666   -18 16 41.95  .15702 1.1644 164.9 18.8 .172  26
2019 05 21 15  14 47 39.901   -18 14 19.05  .15680 1.1641 164.8 18.8 .175  27
2019 05 21 16  14 47 43.147   -18 11 55.75  .15658 1.1639 164.8 18.8 .177  28
2019 05 21 17  14 47 46.404   -18 09 32.06  .15636 1.1637 164.8 18.8 .180  29
2019 05 21 18  14 47 49.673   -18 07 07.96  .15614 1.1635 164.7 18.8 .183  30
2019 05 21 19  14 47 52.954   -18 04 43.47  .15592 1.1632 164.7 18.8 .186  31
2019 05 21 20  14 47 56.247   -18 02 18.57  .15570 1.1630 164.7 18.8 .189  32
2019 05 21 21  14 47 59.551   -17 59 53.27  .15548 1.1628 164.6 18.8 .192  33
2019 05 21 22  14 48 02.867   -17 57 27.56  .15526 1.1625 164.6 18.8 .195  34
2019 05 21 23  14 48 06.195   -17 55 01.45  .15504 1.1623 164.6 18.8 .198  35
2019 05 22 00  14 48 09.535   -17 52 34.94  .15482 1.1621 164.5 18.8 .201  35
2019 05 22 01  14 48 12.886   -17 50 08.02  .15460 1.1619 164.5 18.8 .205  36
2019 05 22 02  14 48 16.250   -17 47 40.69  .15438 1.1616 164.5 18.8 .208  37
2019 05 22 03  14 48 19.625   -17 45 12.94  .15416 1.1614 164.4 18.8 .211  38
2019 05 22 04  14 48 23.012   -17 42 44.79  .15395 1.1612 164.4 18.8 .215  39
2019 05 22 05  14 48 26.412   -17 40 16.23  .15373 1.1610 164.4 18.8 .218  40
2019 05 22 06  14 48 29.823   -17 37 47.25  .15351 1.1607 164.3 18.8 .222  40
2019 05 22 07  14 48 33.247   -17 35 17.86  .15329 1.1605 164.3 18.8 .226  41
2019 05 22 08  14 48 36.683   -17 32 48.05  .15307 1.1603 164.3 18.8 .230  42
2019 05 22 09  14 48 40.131   -17 30 17.82  .15286 1.1601 164.2 18.7 .233  43
2019 05 22 10  14 48 43.591   -17 27 47.18  .15264 1.1598 164.2 18.7 .237  43
2019 05 22 11  14 48 47.063   -17 25 16.12  .15242 1.1596 164.1 18.7 .241  44
2019 05 22 12  14 48 50.548   -17 22 44.63  .15221 1.1594 164.1 18.7 .245  45
2019 05 22 13  14 48 54.045   -17 20 12.72  .15199 1.1592 164.1 18.7 .249  45
2019 05 22 14  14 48 57.554   -17 17 40.40  .15177 1.1589 164.0 18.7 .254  46
2019 05 22 15  14 49 01.076   -17 15 07.64  .15156 1.1587 164.0 18.7 .258  47
2019 05 22 16  14 49 04.610   -17 12 34.46  .15134 1.1585 164.0 18.7 .262  47
2019 05 22 17  14 49 08.157   -17 10 00.85  .15113 1.1583 163.9 18.7 .266  48
2019 05 22 18  14 49 11.717   -17 07 26.82  .15091 1.1580 163.9 18.7 .271  49
2019 05 22 19  14 49 15.289   -17 04 52.35  .15070 1.1578 163.9 18.7 .275  49
2019 05 22 20  14 49 18.873   -17 02 17.46  .15048 1.1576 163.8 18.7 .280  50
2019 05 22 21  14 49 22.470   -16 59 42.13  .15027 1.1574 163.8 18.7 .284  50
2019 05 22 22  14 49 26.080   -16 57 06.37  .15005 1.1571 163.7 18.7 .289  51
2019 05 22 23  14 49 29.703   -16 54 30.17  .14984 1.1569 163.7 18.7 .294  52
2019 05 23 00  14 49 33.338   -16 51 53.54  .14962 1.1567 163.7 18.7 .298  52
2019 05 23 01  14 49 36.987   -16 49 16.47  .14941 1.1565 163.6 18.7 .303  53
2019 05 23 02  14 49 40.648   -16 46 38.97  .14919 1.1562 163.6 18.7 .308  53
2019 05 23 03  14 49 44.322   -16 44 01.02  .14898 1.1560 163.6 18.7 .313  54
2019 05 23 04  14 49 48.009   -16 41 22.63  .14877 1.1558 163.5 18.7 .318  54
2019 05 23 05  14 49 51.709   -16 38 43.80  .14855 1.1556 163.5 18.7 .323  55
2019 05 23 06  14 49 55.422   -16 36 04.53  .14834 1.1554 163.4 18.7 .328  55
2019 05 23 07  14 49 59.148   -16 33 24.81  .14813 1.1551 163.4 18.7 .333  56